TIME,DELAY(SENSOR),PRES,OXYGEN,RAWTEMP,T(OPTODE),TCPHASE,FLUOR,BETA(BETA700),BETA(BETA412),BETA(BETA440),CDOM,C(CSC),ED(ED412.20),ED(ED444.00),ED(ED489.60),ED(ED554.30),LU(LU412.10),LU(LU443.90),LU(LU489.70),LU(LU554.70),COMP,TILTX,TILTY,CHECK
1352863439,5813,890.4799804687500000,33.6273994445800800,562.9255981445312000,4.3951888084411620,56.5282592773437500,55,99,100,78,83,15552,0,0,0,0,2147121517,2147781814,2147571602,2147567085,3286,3,13,32145
1352867035,5809,961.7500000000000000,38.1333198547363300,568.6538696289062000,4.2173819541931150,55.8800506591796900,55,100,100,77,82,15548,0,0,0,0,2147123574,2147780836,2147574180,2147568420,3575,3,13,19185
1352870635,5807,973.4199829101562000,39.3602485656738300,570.0833740234375000,4.1729679107666020,55.7095794677734400,55,100,99,78,82,15544,0,0,0,0,2147123602,2147773723,2147573193,2147566016,447,3,13,58257
1352874235,5807,979.1300048828125000,38.4166793823242200,569.5040893554688000,4.1909708976745605,55.8457908630371100,55,98,100,78,82,15548,0,0,0,0,2147120941,2147777289,2147574208,2147567232,264,3,13,16937
1352877835,5810,979.5200195312500000,38.9686317443847660,570.0847778320312000,4.1729259490966800,55.7743797302246100,55,99,99,77,82,15546,0,0,0,0,2147125769,2147776219,2147570157,2147567542,570,3,13,7177
1352881435,5808,987.8300170898438000,38.6311798095703100,570.0214843750000000,4.1748919486999510,55.8182792663574200,55,100,101,78,83,15545,0,0,0,0,2147122953,2147776201,2147569197,2147566957,228,3,13,39169
1352885035,5808,987.4099731445312000,38.7165794372558600,570.0651245117188000,4.1735382080078125,55.8067588806152340,55,98,102,79,82,15548,0,0,0,0,2147127049,2147776237,2147574153,2147566262,168,3,13,58521
1352888635,5807,991.9000244140625000,38.2308883666992200,570.0255737304688000,4.1747670173645020,55.8807792663574200,56,98,100,79,82,15549,0,0,0,0,2147125467,2147772205,2147571254,2147565750,296,3,13,27250
1352892235,5812,989.1599731445312000,37.7873001098632800,570.1864013671875000,4.1697669029235840,55.9490394592285160,54,100,101,78,83,15545,0,0,0,0,2147123446,2147773229,2147574134,2147569819,36,3,13,65012
1352895835,5809,987.3900146484375000,38.1045494079589840,570.5526733398438000,4.1583819389343260,55.9034309387207000,56,98,100,78,83,15509,0,0,0,0,2147123254,2147775259,2147573942,2147565641,175,3,13,9862
1352899435,5810,997.5000000000000000,38.1606712341308600,570.0695190429688000,4.1734027862548830,55.8965301513671900,55,100,101,77,82,15522,0,0,0,0,2147121837,2147778870,2147572406,2147569682,317,3,13,54064
1352903035,5809,995.8599853515625000,38.5512390136718750,570.1737060546875000,4.1701622009277340,55.8336601257324200,54,98,100,79,82,15522,0,0,0,0,2147122706,2147779428,2147570340,2147566930,3582,3,13,18137
1352906635,5812,996.4199829101562000,38.3256301879882800,570.0861206054688000,4.1728878021240230,55.8663597106933600,56,98,99,78,82,15524,0,0,0,0,2147122843,2147770038,2147575716,2147568996,272,3,13,49523
1352910235,5812,1001.0300292968750000,38.2636413574218750,569.5891113281250000,4.1883301734924320,55.8760795593261700,56,98,101,78,82,15522,0,0,0,0,2147121435,2147772123,2147578395,2147569170,2739,3,13,32881
1352913835,5812,1002.9899902343750000,37.3285293579101560,568.9595947265625000,4.2078881263732910,56.0119895935058600,54,98,102,79,82,15517,0,0,0,0,2147126930,2147771392,2147574299,2147569417,2318,3,13,21828
1352917435,5809,1006.8900146484375000,37.4391708374023440,568.9874267578125000,4.2070240974426270,55.9907989501953100,55,98,99,78,83,15519,0,0,0,0,2147123556,2147777298,2147578322,2147566299,128,3,13,39132
1352921035,5811,1009.1599731445312000,37.3823509216308600,568.7241821289062000,4.2151999473571780,55.9993515014648440,55,101,100,76,82,15521,0,0,0,0,2147122377,2147777636,2147572361,2147569060,96,3,13,44432
1352924635,5810,1006.5800170898438000,37.4763793945312500,568.9824218750000000,4.2071781158447270,55.9900398254394500,55,100,99,79,83,15519,0,0,0,0,2147125504,2147772845,2147571858,2147565769,147,3,13,41621
1352928235,5811,1002.2399902343750000,37.7535896301269500,569.3109741210938000,4.1969680786132810,55.9486503601074200,56,99,135,77,82,15521,0,0,0,0,2147123072,2147771803,2147571913,2147565110,3302,3,13,27191
1352931835,5808,999.4600219726562000,37.0215988159179700,569.7619018554688000,4.1829590797424320,56.0614891052246100,55,100,100,77,81,15520,0,0,0,0,2147126930,2147774381,2147573869,2147570148,187,3,13,54613
1352935435,5808,993.3200073242188000,38.4602317810058600,571.0814208984375000,4.1419529914855960,55.8559188842773440,55,96,100,77,82,15522,0,0,0,0,2147126016,2147775762,2147574537,2147567981,3576,3,13,50272
1352939035,5810,997.1099853515625000,38.3511581420898440,571.0106201171875000,4.1441521644592285,55.8710899353027340,56,99,100,78,83,15518,0,0,0,0,2147125302,2147773549,2147575405,2147568274,282,3,13,48600
1352942635,5814,992.2399902343750000,38.2629699707031250,571.0510864257812000,4.1428928375244140,55.8858718872070300,55,98,100,78,83,15518,0,0,0,0,2147122724,2147773805,2147575597,2147568923,92,3,13,15788
1352946235,5807,987.7299804687500000,38.9420890808105500,572.2659301757812000,4.1051249504089355,55.7939491271972660,55,99,100,78,82,15519,0,0,0,0,2147123346,2147772873,2147572260,2147567168,311,3,13,9794
1352949835,5809,985.2999877929688000,39.7425308227539060,572.8906250000000000,4.0856990814208980,55.6866302490234400,55,97,101,78,82,15519,0,0,0,0,2147119771,2147773568,2147572416,2147567405,101,3,13,50222
1352953435,5812,988.8599853515625000,40.1539688110351560,572.7828979492188000,4.0890479087829590,55.6253700256347660,54,98,99,78,84,15520,0,0,0,0,2147129828,2147772470,2147574454,2147566198,219,3,13,22899
1352957035,5811,1004.8800048828125000,39.3172111511230500,571.2852783203125000,4.1356110572814940,55.7334709167480500,56,99,100,78,82,15519,0,0,0,0,2147123602,2147774317,2147568521,2147565924,107,3,12,40032
1352960635,5807,1004.6099853515625000,38.6369895935058600,570.9268798828125000,4.1467528343200680,55.8294601440429700,54,100,101,77,82,15520,0,0,0,0,2147121453,2147770496,2147574473,2147566482,367,3,13,16338
1352964235,5807,1005.0599975585938000,37.5607986450195300,570.8029174804688000,4.1506061553955080,55.9920806884765600,55,98,101,77,83,15518,0,0,0,0,2147123885,2147777051,2147571501,2147565202,459,3,13,6352
1352967835,5809,1007.6300048828125000,37.4580192565918000,569.7061767578125000,4.1846899986267090,55.9960403442382800,55,97,100,78,82,15515,0,0,0,0,2147121910,2147774226,2147571821,2147569700,3594,3,13,18736
1352971435,5810,1008.2100219726562000,38.6467704772949200,570.9782104492188000,4.1451587677001950,55.8277397155761700,55,98,101,78,83,15517,0,0,0,0,2147122816,2147771474,2147575076,2147564745,702,3,13,44376
1352975035,5813,1001.6199951171875000,38.6013488769531250,570.9890136718750000,4.1448230743408200,55.8340797424316400,55,98,100,78,82,15516,0,0,0,0,2147121618,2147775360,2147577572,2147569673,720,3,13,9793
1352978635,5810,1001.1500244140625000,37.7203788757324200,571.0164794921875000,4.1439671516418460,55.9708595275878900,55,98,99,78,83,15516,0,0,0,0,2147125275,2147774052,2147576694,2147568795,141,3,13,14816
1352982235,5809,1003.0200195312500000,38.4461288452148440,571.0969848632812000,4.1414661407470700,55.8635215759277340,55,99,100,79,82,15520,0,0,0,0,2147121206,2147775680,2147572909,2147566555,3579,3,13,11954
1352985835,5808,1001.7800292968750000,37.9030799865722660,571.1754150390625000,4.1390299797058105,55.9441909790039060,56,98,100,77,82,15516,0,0,0,0,2147122587,2147772123,2147567104,2147567268,305,3,13,32667
1352989435,5810,1002.4699707031250000,38.4816284179687500,571.2199096679688000,4.1376461982727050,55.8595314025878900,55,99,101,77,82,15516,0,0,0,0,2147123145,2147773083,2147572617,2147568539,861,3,13,50460
1352993035,5809,1008.5599975585938000,38.8453788757324200,570.7625122070312000,4.1518650054931640,55.7994194030761700,55,98,99,77,82,15517,0,0,0,0,2147124077,2147770038,2147572672,2147567113,412,3,13,34996
1352996635,5812,1003.0900268554688000,37.9917106628418000,571.2156982421875000,4.1377749443054200,55.9290809631347660,55,100,100,78,83,15514,0,0,0,0,2147119012,2147771446,2147575926,2147566061,3446,3,13,38991
1353000235,5810,997.9899902343750000,38.3938789367675800,571.3485717773438000,4.1336460113525390,55.8698692321777340,55,98,100,78,83,15514,0,0,0,0,2147126774,2147773248,2147573348,2147567323,186,3,13,38407
1353003835,5810,1003.4899902343750000,38.7616691589355500,571.2631225585938000,4.1363029479980470,55.8128814697265600,55,97,101,79,83,15517,0,0,0,0,2147121398,2147770797,2147571885,2147567158,10,3,13,42477
1353007435,5810,1008.1199951171875000,38.4102096557617200,570.5040893554688000,4.1598949432373050,55.8614501953125000,56,99,100,82,83,15512,0,0,0,0,2147124708,2147771062,2147568064,2147567195,269,3,13,65109
1353007556,5809,1007.9000244140625000,38.3366317749023440,570.4326782226562000,4.1621131896972660,55.8673896789550800,55,99,99,78,82,15514,0,0,0,0,2147123638,2147767625,2147569920,2147567222,219,3,13,38548
